Regional Weather Roundup
Issued by NWS Cleveland, OH

Home | Current Version | Previous Version | Graphics & Text | Print | Product List | Glossary On
Versions: 1 2 3 4 5 6 7 8 9 10 11 12 13 14 15 16 17 18 19 20 21 22 23 24 25 26 27 28 29 30 31 32 33 34 35 36 37 38 39 40 41 42 43 44 45 46 47 48 49 50
000
ASUS41 KCLE 271702
RWRCLE
OHIO REGIONAL WEATHER ROUNDUP
NATIONAL WEATHER SERVICE CLEVELAND, OH
100 PM EDT WED AUG 27 2014

NOTE: "FAIR" INDICATES FEW OR NO CLOUDS BELOW 12,000 FEET WITH NO
SIGNIFICANT WEATHER AND/OR OBSTRUCTIONS TO VISIBILITY.

OHZ001>008-015>018-024>027-034-035-043-044-271800-
   NORTHWEST OHIO

CITY           SKY/WX    TMP DP  RH WIND       PRES   REMARKS
DEFIANCE       MOSUNNY   78  66  66 VRB5      30.12S
FINDLAY        PTSUNNY   79  67  66 N3        30.10F
TOLEDO EXPRESS PTSUNNY   79  66  64 N7        30.11F
TOLEDO EXEC    PTSUNNY   77  65  66 CALM      30.12F
LIMA           MOSUNNY   81  70  69 NE6       30.10F
$$

OHZ009>014-019>023-028>033-038-089-271800-
   NORTHEAST OHIO

CITY           SKY/WX    TMP DP  RH WIND       PRES   REMARKS
CLE-HOPKINS    CLOUDY    73  67  81 N12       30.12S
CLE-LAKEFRONT  CLOUDY    74  65  73 NE9       30.08F
CUY CO. ARPT   CLOUDY    75  68  78 N8        30.11S
LORAIN-ELYRIA  CLOUDY    78  69  73 NE10      30.11R
ASHTABULA      CLOUDY    74  62  66 VRB6      30.10S
AKRON-CANTON   CLOUDY    81  68  64 CALM      30.09F
WOOSTER        MOSUNNY   80  69  69 NW6       30.11S
MANSFIELD      PTSUNNY   81  68  64 NW7       30.12S
YOUNGSTOWN     PTSUNNY   78  66  66 NW7       30.09F
$$

OHZ042-051>053-060>062-070>072-077>081-271800-
  SOUTHWEST OHIO

CITY           SKY/WX    TMP DP  RH WIND       PRES   REMARKS
CINC-COVINGTON MOSUNNY   87  70  56 CALM      30.09F HX  92
CINC-LUNKEN    SUNNY     87  71  58 CALM      30.08F HX  93
HAMILTON       SUNNY     87  70  56 VRB3      30.09F HX  92
DAYTON         MOSUNNY   85  71  63 VRB3      30.11F HX  90
WRIGHT-PAT AFB SUNNY     83  72  68 VRB1      30.09F
DAYTON GENERAL SUNNY     85  71  63 MISG      30.09F HX  90
WILMINGTON     MOSUNNY   82  70  66 SE3       30.10F
$$

OHZ036-037-039>041-045>050-054>059-063>069-073>076-082>088-271800-
  CENTRAL AND SOUTHEAST OHIO

CITY           SKY/WX    TMP DP  RH WIND       PRES   REMARKS
COLUMBUS       MOSUNNY   87  68  52 N5        30.08F HX  90
OSU AIRPORT    MOSUNNY   84  68  58 VRB6      30.09F
BOLTON FIELD   MOSUNNY   82  72  69 N6        30.09F
RICKENBACK AFB MOSUNNY   84  65  53 SW5       30.08F
NEWARK         PTSUNNY   81  71  71 W6        30.08F
MARION         PTSUNNY   79  69  71 VRB6      30.10F
LANCASTER      MOSUNNY   85  71  63 VRB3      30.09F HX  90
ZANESVILLE     MOSUNNY   83  70  64 SW3       30.09S
NEW PHILLY     MOSUNNY   84  71  65 CALM      30.08F
$$



USA.gov is the U.S. government's official web portal to all federal, state and local government web resources and services.